Weather History for CYCS - May, 2014

Change the Weather History Date:

Thursday, May 1, 2014

  Actual Average Record
Temperature  
Mean Temperature 8 °F -  
Max Temperature 26 °F 18 °F 33 °F (2015)
Min Temperature -11 °F 9 °F -16 °F (2013)
Degree Days  
Heating Degree Days 58    
Moisture  
Dew Point 18 °F    
Average Humidity 89    
Maximum Humidity 100    
Minimum Humidity 67    
Precipitation  
Precipitation 0.00 in - - ()
Sea Level Pressure  
Sea Level Pressure 30.19 in    
Wind  
Wind Speed 3 mph ()    
Max Wind Speed 7 mph    
Max Gust Speed -    
Visibility 4.5 miles    
Events Fog , Snow    
Averages and records for this station are not official NWS values.
T = Trace of Precipitation, MM = Missing Value Source: Averaged Metar Reports

Daily Weather History Graph

Daily Weather History Graph

Search for Another Location

Airport or City:

Trip Planner

Search our weather history database for the weather conditions in past years. The results will help you decide how hot, cold, wet, or windy it might be!

Date:

Astronomy

May. 01, 2014 Rise Set
Actual Time 3:40 AM MDT 8:21 PM MDT
Civil Twilight 2:35 AM MDT 9:27 PM MDT
Nautical Twilight 12:32 AM MDT 11:27 PM MDT
Astronomical Twilight Sun does not set Sun does not set
Moon 5:07 AM MDT (5/1) 11:19 PM MDT (5/1)
Length of Visible Light 18h 52m
Length of Day
16h 40m
Waxing Crescent, 7% of the Moon is Illuminated
May 1
Waxing Crescent
May 6
First Quarter
May 14
Full
May 21
Last Quarter
May 28
New

Hourly Weather History & Observations

Time (MDT) Temp. Windchill Dew Point Humidity Pressure Visibility Wind Dir Wind Speed Gust Speed Precip Events Conditions
12:00 AM -4 °F - -8 °F 75% 30.38 in - Calm Calm - -  
6:00 AM -11 °F - -16 °F 69% 30.49 in - Calm Calm - -  
6:00 AM 26.6 °F 22.6 °F 26.6 °F 100% 30.18 in 0.4 mi WNW 3.5 mph - N/A Fog Light Freezing Drizzle
6:24 AM 26.6 °F 22.6 °F 26.6 °F 100% 30.17 in 0.8 mi North 3.5 mph - N/A   Light Freezing Drizzle
7:00 AM 26.6 °F 22.6 °F 24.8 °F 93% 30.15 in 1.5 mi North 3.5 mph - N/A   Light Freezing Drizzle
7:38 AM 26.6 °F - 24.8 °F 93% 30.14 in 6.0 mi East 2.3 mph - N/A   Overcast
8:00 AM 26.6 °F - 24.8 °F 93% 30.13 in 8.0 mi NE 2.3 mph - N/A   Overcast
9:00 AM 26.6 °F 22.6 °F 24.8 °F 93% 30.11 in 3.0 mi NNE 3.5 mph - N/A Snow Light Snow
9:21 AM 26.6 °F 21.2 °F 24.8 °F 93% 30.11 in 2.0 mi SE 4.6 mph - N/A Snow Light Snow
9:35 AM 26.6 °F 21.2 °F 24.8 °F 93% 30.10 in 0.4 mi ESE 4.6 mph - N/A Fog , Snow Light Snow
10:00 AM 26.6 °F - 24.8 °F 93% 30.10 in 1.0 mi East 2.3 mph - N/A Snow Light Snow
10:18 AM 26.6 °F - 24.8 °F 93% 30.09 in 3.0 mi East 2.3 mph - N/A   Overcast
11:00 AM 26.6 °F 22.6 °F 24.8 °F 93% 30.08 in 7.0 mi East 3.5 mph - N/A Snow Light Snow
12:00 PM -3 °F - -6 °F 79% 30.56 in - Calm Calm - -  
12:00 PM 26.6 °F 21.2 °F 24.8 °F 93% 30.07 in 8.0 mi ENE 4.6 mph - N/A Snow Light Snow
1:00 PM 26.6 °F 21.2 °F 24.8 °F 93% 30.06 in 10.0 mi ESE 4.6 mph - N/A Snow Light Snow
2:00 PM 26.6 °F 20.0 °F 24.8 °F 93% 30.04 in 8.0 mi NNE 5.8 mph - N/A Snow Light Snow
3:00 PM 26.6 °F 19.1 °F 24.8 °F 93% 30.04 in 8.0 mi ENE 6.9 mph - N/A Snow Light Snow
6:00 PM 6 °F - 0 °F 67% 30.55 in - Calm Calm - -